Погода в Ржаном

Россия / Орловская область     52°54′33″N   36°36′55″E
темп.,
°C
ветер,
м/с
пор.,
м/с
влажн.,
%
обл.,
%
осадки,
мм/ч
давл.,
гПа
погр.,
м
16 мая, вс
вс1600:00+12ююз34940 0.0 101261
03:00+11ююз34940 0.0 101366
06:00+12ю359218 0.0 1013114
09:00+17ююз467641 0.0 1014407
12:00+21ююз57591 0.6 10141477
15:00+22ююз475690 0.6 10142057
18:00+21зюз2370100 0.0 1013371
21:00+16всв227749 0.0 101312
17 мая, пн
пн1700:00+14всв35836 0.0 101361
03:00+13всв41089100 0.3 1013170
06:00+14в513915 0.2 1012293
09:00+19вюв712766 0.2 1011446
12:00+23вюв711600 0.0 1010770
15:00+25вюв7136041 0.0 10081535
18:00+23юв714651 0.0 1007716
21:00+19вюв7167478 0.0 1007448
18 мая, вт
вт1800:00+17юв514816 0.0 1007323
03:00+15юв5119064 0.0 1006226
06:00+15юв5119391 0.9 1006256
09:00+18ююв5118872 0.9 1006626
12:00+21ююв796471 0.0 10071021
15:00+22ю61162100 0.0 10061957
18:00+17ююв4108077 0.3 1006392
21:00+16ююв5128813 0.4 1006378
19 мая, ср
ср1900:00+14юв489596 0.0 1006170
03:00+13юв4895100 0.0 1005157
06:00+14юв4993100 0.1 1005271
09:00+17ююв587932 0.1 1004602
12:00+18ююв6778100 1.1 10041002
15:00+18ююв567799 2.6 1004927
18:00+13ююз5991100 1.1 1005500
21:00+13ю499194 1.1 1005439
20 мая, чт
чт2000:00+10ю499727 0.0 1005307
03:00+10ю4795100 0.0 1005481
06:00+10ююз499586 0.1 1004543
09:00+9юз71294100 0.3 1007824
12:00+11юз81290100 0.2 1009927
15:00+15зюз9147627 0.6 10101402
18:00+14з61077100 0.3 10131090
21:00+10ссз1188100 0.3 101510